Weather History for Corpus Christi NAS, TX

Change the Weather History Date:

Sunday, November 25, 2012

  Actual Average Record
Temperature  
Mean Temperature 64 °F -  
Max Temperature 73 °F 70 °F 82 °F (2005)
Min Temperature 55 °F 55 °F 39 °F (2003)
Degree Days  
Heating Degree Days 1    
Growing Degree Days 14 (Base 50)    
Moisture  
Dew Point 60 °F    
Average Humidity 82    
Maximum Humidity 93    
Minimum Humidity 64    
Precipitation  
Precipitation 0.00 in - - ()
Sea Level Pressure  
Sea Level Pressure 30.05 in    
Wind  
Wind Speed 5 mph (ENE)    
Max Wind Speed 13 mph    
Max Gust Speed -    
Visibility 10 miles    
Events      
Averages and records for this station are not official NWS values.
T = Trace of Precipitation, MM = Missing Value Source: NWS Daily Summary

Daily Weather History Graph

Daily Weather History Graph

Search for Another Location

Airport:

Trip Planner

Search our weather history database for the weather conditions in past years. The results will help you decide how hot, cold, wet, or windy it might be!

Date:

Astronomy

Nov. 25, 2012 Rise Set
Actual Time 6:58 AM CST 5:34 PM CST
Civil Twilight 6:33 AM CST 5:59 PM CST
Nautical Twilight 6:04 AM CST 6:27 PM CST
Astronomical Twilight 5:36 AM CST 6:56 PM CST
Moon 3:43 PM CST (11/25) 4:23 AM CST (11/25)
Length of Visible Light 11h 26m
Length of Day
10h 35m
Waxing Gibbous, 93% of the Moon is Illuminated
Nov 25
Waxing Gibbous
Nov 28
Full
Dec 6
Last Quarter
Dec 13
New
Dec 19
First Quarter

Hourly Weather History & Observations

Time (CST) Temp. Dew Point Humidity Pressure Visibility Wind Dir Wind Speed Gust Speed Precip Events Conditions
12:56 AM 57.0 °F 54.0 °F 89% 30.16 in 10.0 mi WSW 3.5 mph - N/A   Clear
1:56 AM 55.9 °F 51.1 °F 84% 30.13 in 10.0 mi West 3.5 mph - N/A   Clear
2:56 AM 57.0 °F 52.0 °F 83% 30.12 in 10.0 mi Calm Calm - N/A   Clear
3:56 AM 57.0 °F 53.1 °F 87% 30.10 in 10.0 mi NW 5.8 mph - N/A   Clear
4:56 AM 57.0 °F 54.0 °F 89% 30.09 in 10.0 mi NNW 3.5 mph - N/A   Clear
5:56 AM 57.9 °F 54.0 °F 87% 30.09 in 10.0 mi North 5.8 mph - N/A   Clear
6:40 AM 59.0 °F 55.4 °F 88% 30.10 in 10.0 mi NNW 4.6 mph - N/A   Mostly Cloudy
6:56 AM 60.1 °F 55.9 °F 86% 30.10 in 10.0 mi North 5.8 mph - N/A   Overcast
7:56 AM 62.1 °F 55.9 °F 80% 30.11 in 10.0 mi North 5.8 mph - N/A   Overcast
8:56 AM 64.0 °F 57.0 °F 78% 30.12 in 10.0 mi NNE 4.6 mph - N/A   Overcast
9:56 AM 66.9 °F 57.0 °F 70% 30.12 in 10.0 mi Calm Calm - N/A   Overcast
10:37 AM 69.8 °F 57.2 °F 64% 30.11 in 10.0 mi NNE 6.9 mph - N/A   Scattered Clouds
10:56 AM 70.0 °F 60.1 °F 71% 30.10 in 10.0 mi NNE 5.8 mph - N/A   Partly Cloudy
11:56 AM 71.1 °F 61.0 °F 70% 30.07 in 10.0 mi NE 4.6 mph - N/A   Overcast
12:56 PM 72.0 °F 63.0 °F 73% 30.03 in 10.0 mi North - - N/A   Overcast
1:56 PM 72.0 °F 64.0 °F 76% 30.00 in 10.0 mi East 9.2 mph - N/A   Overcast
2:56 PM 73.0 °F 64.9 °F 76% 29.98 in 10.0 mi East 6.9 mph - N/A   Mostly Cloudy
3:56 PM 73.9 °F 64.9 °F 73% 29.96 in 10.0 mi East 9.2 mph - N/A   Scattered Clouds
4:56 PM 72.0 °F 66.9 °F 84% 29.96 in 10.0 mi East 6.9 mph - N/A   Partly Cloudy
5:56 PM 70.0 °F 68.0 °F 93% 29.95 in 10.0 mi ESE 6.9 mph - N/A   Partly Cloudy
6:56 PM 68.0 °F 65.5 °F 92% 29.96 in 10.0 mi SE 4.6 mph - N/A   Partly Cloudy
7:56 PM 68.4 °F 65.5 °F 90% 29.97 in 10.0 mi SE 6.9 mph - N/A   Partly Cloudy
8:56 PM 70.0 °F 66.6 °F 89% 29.98 in 10.0 mi SSE 9.2 mph - N/A   Scattered Clouds
9:56 PM 70.2 °F 65.5 °F 85% 29.98 in 10.0 mi South 11.5 mph - N/A   Mostly Cloudy
10:56 PM 69.1 °F 66.9 °F 93% 29.98 in 10.0 mi South 12.7 mph - N/A   Clear
11:56 PM 68.0 °F 64.9 °F 90% 29.97 in 10.0 mi South 9.2 mph - N/A   Clear